Location: Wien
(48.2082°N, 16.3738°E)
Time: 13:16:39
(UTC+02:00)

Tiros 1 despin weight - Pass Details

Date: 14 September 2024
Orbit: 573 x 615 km, 48.2° (Epoch: 06 October)

Event Time Altitude Azimuth Distance (km) Brightness Sun altitude
Rises 07:17:50 0° 270° (W) 2,887 ? 7.0°
Reaches altitude 10° 07:20:09 10° 270° (W) 1,983 ? 7.4°
Maximum altitude 07:24:44 89° 4° (N) 624 ? 8.2°
Drops below altitude 10° 07:29:18 10° 92° (E) 1,977 ? 8.9°
Sets 07:31:36 0° 92° (E) 2,878 ? 9.3°
